This demonstration page uses our WeatherBlox Daily Observations layout. Learn more.

Left ArrowRight Arrow

39.08367, -84.50855

Hourly Observations for December 31, 2017

Temp ( °F °C ) Dew Point ( °F °C ) Humidity (%) Winds ( mph kmh ) Pressure ( in mb ) Visibility ( mi km ) Precip ( " mm )
12:53 am 00:53 Clear 7 -13.9 -3 -19.4 63 63 NNW 7 11 30.46 1032 10 16 N/A
1:53 am 01:53 Cloudy 8 -13.3 -2 -18.9 63 63 N 5 7 30.47 1032 10 16 N/A
2:53 am 02:53 Cloudy 8 -13.3 -1 -18.3 66 66 N 5 7 30.48 1032 10 16 N/A
3:53 am 03:53 Cloudy 8 -13.3 -1 -18.3 66 66 NNE 7 11 30.44 1031 10 16 N/A
4:53 am 04:53 Cloudy 8 -13.3 N/A 69 69 NNE 6 9 30.46 1031 10 16 N/A
5:53 am 05:53 Cloudy 9 -12.8 1 -17.2 70 70 N 6 9 30.45 1031 10 16 N/A
6:53 am 06:53 Cloudy 9 -12.8 1 -17.2 70 70 VRB 5 7 30.50 1033 10 16 N/A
7:53 am 07:53 Cloudy 9 -12.8 1 -17.2 70 70 N 5 7 30.51 1033 10 16 N/A
8:53 am 08:53 Cloudy 10 -12.2 2 -16.7 69 69 NNW 3 6 30.53 1034 10 16 N/A
9:53 am 09:53 Cloudy 10 -12.2 2 -16.7 69 69 NNE 7 11 30.53 1034 10 16 N/A
10:53 am 10:53 Cloudy 11 -11.7 4 -15.6 73 73 N 6 9 30.54 1034 8 13 N/A
11:53 am 11:53 Mostly Cloudy 14 -10 6 -14.4 71 71 N 5 7 30.53 1034 10 16 N/A
12:00 pm 12:00 Partly Cloudy 14 -10 5 -15 67 67 NNE 3 6 30.56 1035 10 16 N/A
12:53 pm 12:53 Partly Cloudy 16 -8.9 6 -14.4 65 65 N N/A 30.51 1033 10 16 N/A
1:53 pm 13:53 Mostly Cloudy 18 -7.8 8 -13.3 65 65 NNW 7 11 30.49 1033 10 16 N/A
2:53 pm 14:53 Cloudy 16 -8.9 7 -13.9 67 67 NNW 9 15 30.50 1033 10 16 N/A
3:53 pm 15:53 Cloudy with Light Snow 16 -8.9 8 -13.3 71 71 N 9 15 30.51 1033 5 8 N/A
4:53 pm 16:53 Cloudy 15 -9.4 8 -13.3 74 74 N 8 13 30.53 1034 8 13 N/A
5:53 pm 17:53 Cloudy 15 -9.4 9 -12.8 77 77 N 12 19 30.54 1034 10 16 N/A
6:53 pm 18:53 Cloudy 14 -10 7 -13.9 73 73 N 10 17 30.56 1035 10 16 N/A
7:53 pm 19:53 Cloudy 12 -11.1 5 -15 73 73 N 6 9 30.59 1036 10 16 N/A
8:53 pm 20:53 Cloudy 11 -11.7 4 -15.6 73 73 NNE 6 9 30.60 1036 10 16 N/A
9:53 pm 21:53 Clear 10 -12.2 4 -15.6 76 76 N N/A 30.61 1037 10 16 N/A
10:53 pm 22:53 Clear 9 -12.8 4 -15.6 80 80 N N/A 30.63 1037 10 16 N/A
11:53 pm 23:53 Clear 7 -13.9 3 -16.1 84 84 N N/A 30.63 1037 10 16 N/A

Powered by AerisWeather